FW5230 Weather Reports


time (UTC)temp
F
wind
direction
speed
knots
gust
knots
rain 1hr
in
rain 24hr
in
rain mn
in
humidity
%
barometer
mb
20260505124520 60 234 4.3 10.4 0.00 0.00 0.00 67 1007.1
20260505123016 59 263 0.9 8.7 0.00 0.00 0.00 71 1007.1
20260505121514 57 243 1.7 7.8 0.00 0.00 0.00 74 1007.2
20260505120009 56 209 3.5 10.4 0.00 0.00 0.00 76 1007.3
20260505114504 53 266 1.7 7.0 0.00 0.00 0.00 83 1007.6
20260505113105 49 228 1.7 4.3 0.00 0.00 0.00 93 1007.5
20260505111608 45 259 0.0 0.9 0.00 0.00 0.00 99 1007.4
20260505101555 38 355 0.0 0.9 0.00 0.00 0.00 97 1007.3
20260505100054 38 130 0.0 0.0 0.00 0.00 0.00 96 1007.3
20260505094553 39 130 0.0 0.0 0.00 0.00 0.00 97 1007.3
20260505093052 39 130 0.0 0.0 0.00 0.00 0.00 97 1007.2
20260505091551 39 130 0.0 0.0 0.00 0.00 0.00 97 1007.2
20260505090055 39 130 0.0 0.0 0.00 0.00 0.00 96 1007.3
20260505084551 39 130 0.0 0.0 0.00 0.00 0.00 96 1007.4
20260505083101 38 130 0.0 0.0 0.00 0.00 0.00 96 1007.5
20260505081553 39 130 0.0 0.0 0.00 0.00 0.00 95 1007.5
20260505080047 40 130 0.0 0.0 0.00 0.00 0.00 96 1007.5
20260505074547 40 130 0.0 0.0 0.00 0.00 0.00 96 1007.4
20260505073047 39 142 0.0 0.0 0.00 0.00 0.00 97 1007.4
20260505071545 39 144 0.0 0.0 0.00 0.00 0.00 95 1007.5
20260505070050 39 144 0.0 0.0 0.00 0.00 0.00 95 1007.4
20260505064556 39 144 0.0 0.0 0.00 0.00 0.00 95 1007.3
20260505063050 40 144 0.0 0.0 0.00 0.00 0.00 95 1007.3
20260505061544 40 144 0.0 0.0 0.00 0.00 0.00 94 1007.4
20260505060039 41 144 0.0 0.0 0.00 0.00 0.00 94 1007.5
20260505054536 41 144 0.0 0.0 0.00 0.00 0.00 94 1007.4
20260505053034 42 144 0.0 0.9 0.00 0.00 0.00 95 1007.3
20260505051534 42 60 0.0 0.0 0.00 0.00 0.00 94 1007.3
20260505041531 44 82 0.0 0.0 0.00 0.00 0.00 91 1007.0
20260505040021 45 42 0.0 0.0 0.00 0.00 0.00 91 1007.1
20260505034519 47 42 0.0 0.0 0.00 0.00 0.00 89 1007.2
20260505033020 47 42 0.0 0.0 0.00 0.00 0.00 89 1007.1
20260505031519 48 42 0.0 0.0 0.00 0.00 0.00 88 1007.2
20260505030018 48 42 0.0 1.7 0.00 0.00 0.00 88 1007.3
20260505024534 49 118 0.0 0.9 0.00 0.00 0.00 86 1007.2
20260505023017 49 5 0.0 0.9 0.00 0.00 0.00 85 1007.2
20260505021518 50 106 0.0 2.6 0.00 0.00 0.00 85 1007.3
20260505020016 49 91 0.9 2.6 0.00 0.00 0.00 87 1007.5
20260505014514 49 293 0.0 0.9 0.00 0.00 0.00 88 1007.3
20260505013020 50 293 0.0 0.0 0.00 0.00 0.00 85 1007.0
20260505011513 51 293 0.0 0.0 0.00 0.00 0.00 83 1006.9
20260505010013 52 293 0.0 0.9 0.00 0.00 0.00 79 1006.6
20260505004515 53 293 0.0 0.9 0.00 0.00 0.00 79 1006.6
20260505003015 54 293 0.0 0.0 0.00 0.00 0.00 76 1006.4
20260505001515 55 293 0.0 0.0 0.00 0.00 0.00 74 1006.2
20260505000026 56 293 0.0 0.0 0.00 0.00 0.00 71 1006.1
20260504234511 57 293 0.0 0.0 0.00 0.00 0.00 68 1006.0
20260504233017 58 293 0.0 0.9 0.00 0.00 0.00 65 1005.7
20260504231523 59 288 0.0 2.6 0.00 0.00 0.00 62 1005.6
20260504230015 60 290 0.9 3.5 0.00 0.00 0.00 61 1005.4
20260504224507 61 334 2.6 5.2 0.00 0.00 0.00 59 1005.3
20260504223007 60 315 2.6 7.8 0.00 0.00 0.00 60 1005.2
20260504221507 60 269 1.7 4.3 0.00 0.00 0.00 60 1005.0
20260504220012 60 298 1.7 7.8 0.00 0.00 0.00 60 1005.1
20260504214508 61 282 4.3 7.8 0.00 0.00 0.00 58 1004.9
20260504213009 61 302 2.6 7.0 0.00 0.00 0.00 59 1004.7
20260504211505 60 282 3.5 8.7 0.00 0.00 0.00 60 1004.8
20260504210004 60 298 4.3 7.0 0.00 0.00 0.00 58 1004.6
20260504204503 60 294 3.5 8.7 0.00 0.01 0.00 60 1004.5
20260504203011 60 313 5.2 11.3 0.00 0.01 0.00 60 1004.4
20260504201503 60 244 3.5 12.2 0.00 0.01 0.00 61 1004.3
20260504200003 61 251 4.3 15.6 0.00 0.01 0.00 60 1004.2
20260504194611 60 300 5.2 13.0 0.00 0.02 0.00 62 1004.1
20260504193058 59 213 5.2 14.8 0.00 0.02 0.00 63 1004.1
20260504191557 58 296 7.8 13.0 0.00 0.02 0.00 65 1004.1
20260504190125 58 244 4.3 11.3 0.00 0.02 0.00 65 1004.4
20260504184558 57 315 4.3 13.9 0.00 0.04 0.00 64 1004.4
20260504183052 56 202 5.2 10.4 0.00 0.04 0.00 66 1004.5
20260504181557 56 232 5.2 11.3 0.00 0.04 0.00 66 1004.7
20260504180142 55 219 2.6 7.8 0.00 0.04 0.00 67 1004.9
20260504174551 55 234 5.2 10.4 0.00 0.07 0.00 65 1005.0
20260504173059 55 278 3.5 9.6 0.00 0.07 0.00 65 1004.9
20260504171549 54 254 1.7 5.2 0.00 0.07 0.00 71 1004.9